Robert Spertsyan

Recruteur en chef - Ararat
19 Août 2027
Jeudi
Processus

Personnalité

Adaptabilité (17) Ambition (1) Controverse (19) Loyauté (2) Pression (16) Professionnalisme (19) Sportivité (11) Tempérament (5)

Profil

Style d'entraînement Démocratique
Diplôme Continental Pro
Détermination 8
Gestion des joueurs 10
Motivation 5
Discipline 6
Satisfaction professionnelle
78%
Fatigue
0%
Rôle Recruteur en chef
Salaire 38.9K p/s
Contrat 14.03.2029

Performance

Comportement Bon
Efficacité de l'entraînement
28%
Développement des joueurs
30%
Prévention des blessures
45%
Mise en place tactique
40%

Événements récents

A participé à une réunion de recrutement maintenant
A recommandé une cible de transfert maintenant
A participé à une réunion de recrutement 7j
A recommandé une cible de transfert 7j
A participé à une réunion de recrutement 7j
A participé à une réunion de recrutement 7j
A évalué un joueur 7j
A participé à une réunion de recrutement 14j

Suivi en cours

153
Joueur Club Statut Capacité Confiance Observé Dernière observation Dernier vote
Kevin Bright Alcione Milano Actif 115 / 103 40% 2 10.08.2027 -
Daniel Barrea Godoy Cruz Actif 117 / 116 40% 3 10.08.2027 -
Luca Vignali Virtus Entella Actif 132 / 114 40% 1 02.08.2027 -
Javi García Vicenza Actif 93 / 106 40% 1 02.08.2027 -
Andrea Cagnano Arezzo Actif 118 / 113 40% 2 01.08.2027 -
Davide Balestrero Union Brescia Actif 122 / 119 40% 2 01.08.2027 -
Fabricio Rojas Gimnasia y Tiro Actif 97 / 97 40% 2 30.07.2027 -
Andy Polar Saburtalo Actif 120 / 118 40% 1 29.07.2027 -
Flavio Ciuferri Trapani Actif 113 / 101 40% 2 26.07.2027 -
Tiago Casasola Union Brescia Actif 124 / 112 40% 1 23.07.2027 -
Saimon Ramírez Metropolitanos Actif 94 / 121 40% 1 23.07.2027 -
Harrison Neal Fleetwood Town Actif 94 / 106 40% 3 20.07.2027 -
Enrico Brignola Ternana Actif 115 / 105 40% 2 20.07.2027 -
Adalberto Peñaranda Deportivo Tachira Actif 122 / 113 40% 1 19.07.2027 -
Enzo Martínez Almagro Actif 93 / 109 40% 1 17.07.2027 -
Brian Orosco Godoy Cruz Actif 117 / 101 40% 1 17.07.2027 -
Gastón Moreyra Almirante Brown Actif 115 / 128 40% 1 14.07.2027 -
Federico Giraudo Casarano Actif 108 / 113 40% 1 13.07.2027 -
Danil Lipovoy Ufa Actif 113 / 111 40% 3 09.07.2027 -
Francesco Orlando Cavese Actif 113 / 101 40% 2 09.07.2027 -
Ethan Bristow Tranmere Rovers Actif 95 / 107 40% 4 08.07.2027 -
Antonis Siatounis Potenza Actif 110 / 111 40% 1 07.07.2027 -
Francesco D'Alessio Cittadella Actif 121 / 112 40% 1 07.07.2027 -
Christian D'Urso Triestina Actif 95 / 95 40% 1 06.07.2027 -
Bruno Michel Urartu Actif 118 / 120 55% 1 05.07.2027 -
Aboubacar Doumbia Al-Orobah Actif 114 / 93 40% 3 03.07.2027 -
Mattia Vitale Salernitana Actif 106 / 103 40% 1 03.07.2027 -
Mario Sanabria Chacarita Juniors Actif 126 / 131 40% 1 02.07.2027 -
Ilja Berkovskiy Torpedo Moscow Actif 119 / 99 40% 3 01.07.2027 -
Giacomo Zecca Torres Actif 101 / 114 40% 1 01.07.2027 -
Đorđe Pantelić Spartak Kostroma Actif 107 / 112 40% 5 25.06.2027 -
Alberto Rizzo Union Brescia Actif 104 / 101 40% 1 25.06.2027 -
Isaac Kyereh Liberty Professionals Actif 124 / 122 40% 2 22.06.2027 -
Eyob Zambataro Novara Actif 105 / 101 40% 1 22.06.2027 -
Mohammad Alsalkhadi Damac Actif 128 / 95 40% 3 21.06.2027 -
Jordan Brown Blackpool Actif 102 / 96 40% 6 21.06.2027 -
Kamran Aliev SKA Khabarovsk Actif 89 / 116 40% 3 04.06.2027 -
Goga Kobiashvili Veres Actif 92 / 92 66% 1 01.06.2027 Approuver
Shota Shekiladze Akhmat Grozny Refusé 110 / 110 66% 1 01.06.2027 Refuser
Clinton Dombila Noah Perdu 95 / 93 51% 1 01.06.2027 -
Josh Dacres-Cogley Stockport County Actif 110 / 112 40% 7 30.05.2027 -
Sergio Rodelas Granada Actif 112 / 119 40% 1 30.05.2027 -
Fortune Bassey Djoliba Actif 91 / 97 40% 3 29.05.2027 -
Léo Cordeiro Ural Perdu 97 / 102 40% 2 29.05.2027 Plus d'infos
Hamad Hassan Al Shabab Actif 115 / 134 40% 1 29.05.2027 -
Roman Dixon Walsall Actif 109 / 109 40% 1 29.05.2027 -
Louis Thompson Stevenage Actif 110 / 114 40% 3 28.05.2027 -
Luca Crecco Sorrento Actif 108 / 107 40% 1 26.05.2027 -
Vladimir Khubulov Dinamo Makhachkala Actif 116 / 100 40% 3 23.05.2027 -
Jordan Gabriel Port Vale Actif 109 / 108 40% 4 23.05.2027 -
Sean Clare Leyton Orient Actif 108 / 102 40% 1 21.05.2027 -
Bruno Figueiredo Zabbar St. Patrick Actif 95 / 85 40% 2 19.05.2027 -
Kevin Halabaku Hibernians Actif 106 / 101 40% 1 19.05.2027 Plus d'infos
Shayne Lavery Cambridge United Actif 113 / 108 40% 4 18.05.2027 Observer
Giuseppe Guadagni Picerno Actif 98 / 113 40% 3 18.05.2027 -
Edarlyn Reyes Arsenal Tula Actif 128 / 117 40% 2 16.05.2027 -
Teddy Okou Al-Riyadh Actif 138 / 99 40% 1 15.05.2027 -
Georges-Kévin Nkoudou Al-Diriyah Actif 127 / 116 40% 2 14.05.2027 -
Temirkan Sundukov Dinamo Makhachkala Actif 110 / 125 40% 1 14.05.2027 -
Francesco Toffanin Virtus Verona Actif 111 / 116 40% 1 14.05.2027 -
Louis Reed Mansfield Town Actif 99 / 99 40% 1 12.05.2027 -
Sam Gale Gillingham Actif 97 / 108 40% 1 10.05.2027 -
Djibril Coulibaly Real Bamako Actif 103 / 107 40% 1 08.05.2027 -
Igor Gorbunov Arsenal Tula Actif 108 / 82 40% 1 07.05.2027 -
Leo Goglichidze Rodina Actif 114 / 117 40% 3 05.05.2027 -
Lynden Edhart Cambuur Actif 103 / 107 40% 1 05.05.2027 -
Chandrel Massanga Hatayspor Actif 97 / 101 40% 1 05.05.2027 -
Afonso Assis Moreirense Actif 102 / 115 40% 2 02.05.2027 -
Ronan Darcy Wigan Athletic Actif 105 / 99 40% 1 02.05.2027 -
Francesco Rillo Picerno Actif 106 / 92 40% 1 02.05.2027 -
Hugo Moura Al-Fayha Actif 132 / 130 40% 1 02.05.2027 -
Kamarni Ryan Burton Albion Actif 99 / 92 40% 1 28.04.2027 -
Robert Murić Floriana Actif 115 / 100 40% 3 26.04.2027 -
Thabiso Lebitso Orlando Pirates Actif 119 / 104 40% 3 26.04.2027 -
Andrey Nikitin Neftekhimik Actif 108 / 82 40% 1 26.04.2027 -
Makan Camara AS Bakaridjan Actif 114 / 109 40% 1 21.04.2027 -
Trezeguet Al-Riyadh Actif 119 / 145 40% 2 20.04.2027 -
Jon Eceizabarrena Real Sociedad Actif 101 / 105 40% 1 19.04.2027 -
Kristijan Bistrović Akron Actif 134 / 124 40% 3 17.04.2027 -
Mohammad Javad Hosseinnejad Dinamo Makhachkala Actif 114 / 115 40% 1 14.04.2027 -
Salvatore Pezzella Casertana Actif 105 / 99 40% 1 14.04.2027 -
Ahmed Al-Nakhli Al-Hazem Actif 97 / 117 40% 1 10.04.2027 -
Kerim Çalhanoğlu Gaziantep Actif 113 / 99 40% 1 10.04.2027 -
Malick Touré Onze Createurs Actif 83 / 92 40% 1 09.04.2027 -
Bojan Roganović Torpedo Moscow Actif 102 / 122 40% 1 07.04.2027 -
Evidence Dala Black Aces Actif 91 / 100 40% 1 07.04.2027 -
Nuri Abdokov Fakel Actif 101 / 116 40% 1 07.04.2027 -
Darko Todorović Fakel Actif 104 / 118 40% 1 05.04.2027 -
Ekain Orobengoa Real Sociedad Actif 94 / 107 40% 3 01.04.2027 -
Vasily Cherov Ufa Actif 96 / 117 40% 1 31.03.2027 -
Maxime Sivis Orenburg Actif 134 / 100 40% 1 31.03.2027 -
Mamaye Coulibaly Djoliba Actif 98 / 99 40% 1 30.03.2027 -
Bruno Gomes Valletta Actif 95 / 107 40% 3 29.03.2027 -
Roberto Siucho Najran Actif 91 / 102 40% 1 23.03.2027 -
Ruslan Cherviakov Spartak Kostroma Actif 89 / 94 40% 2 22.03.2027 -
Aaron Drinan Swindon Town Actif 112 / 97 40% 3 17.03.2027 -
Eduardo Armenta Ufa Actif 102 / 117 40% 2 12.03.2027 -
Ahmed Bamasud Al-Fayha Actif 89 / 88 40% 1 11.03.2027 -
Gilson Benchimol Akron Actif 117 / 108 40% 1 07.03.2027 -
Ilja Vakhania Krasnodar Actif 115 / 117 40% 3 03.03.2027 -
Álvaro Medrán Al-Ettifaq Actif 133 / 134 40% 2 02.03.2027 -
Vyacheslav Grulev Nizhniy Novgorod Actif 129 / 128 40% 2 28.02.2027 -
Bruno Almeida AEL Actif 123 / 107 40% 1 27.02.2027 -
Facundo González Yenisey Actif 110 / 81 40% 2 26.02.2027 -
Jordhy Thompson Orenburg Actif 111 / 132 40% 1 26.02.2027 -
Daniel Mancini APOEL Actif 112 / 129 40% 2 25.02.2027 -
Sebastián Arce Rodina Actif 117 / 127 40% 1 25.02.2027 -
Nikolay Giorgobiani Fakel Actif 91 / 121 40% 1 22.02.2027 -
Enzo Cabrera AE Kition Actif 122 / 105 40% 1 20.02.2027 -
Milton Castagna Neftekhimik Actif 108 / 111 40% 1 17.02.2027 -
Stefan Lončar Akron Actif 110 / 129 40% 1 16.02.2027 -
Arsen Adamov Akhmat Grozny Actif 123 / 123 40% 2 15.02.2027 -
Ramazan Gadjimuradov Chelyabinsk Actif 112 / 115 40% 1 14.02.2027 -
Lechi Sadulaev Akhmat Grozny Actif 108 / 132 40% 1 12.02.2027 -
Radhi Al-Otaibi Al-Ettifaq Actif 91 / 127 40% 1 10.02.2027 -
Miloš Brnović Arsenal Tula Actif 116 / 128 40% 1 06.02.2027 -
Mohau Nkota Al-Ettifaq Actif 118 / 131 40% 1 01.02.2027 -
Alexandr Ektov Nizhniy Novgorod Actif 98 / 123 40% 1 29.01.2027 -
Yeangel Montero Naxxar Lions Actif 104 / 111 40% 2 20.01.2027 Plus d'infos
Grigor Hovhannisyan Ararat-Armenia Actif 93 / 94 51% 1 18.01.2027 -
Ruslan Apekov Torpedo Moscow Actif 92 / 102 40% 3 29.12.2026 -
Moussa Koné Al-Ra'ed Actif 130 / 113 40% 1 29.12.2026 -
Andre Green AVS Actif 114 / 112 40% 2 27.12.2026 -
Prince Ibara Al-Njoom Actif 118 / 90 40% 1 27.12.2026 -
Peter Olayinka Al-Wehda Actif 122 / 118 40% 2 25.12.2026 -
Eren Aydın Zira Actif 107 / 112 40% 1 25.12.2026 -
John Kennedy Fluminense Actif 121 / 132 40% 2 24.12.2026 Plus d'infos
Joaquín Bigo Tristán Suárez Actif 99 / 106 40% 1 23.12.2026 -
Tommaso Orsini Sambenedettese Actif 103 / 95 40% 1 23.12.2026 -
Moussakoye Diallo Stade Malien Actif 105 / 89 40% 1 21.12.2026 -
Leandro Antunes Al-Riyadh Actif 105 / 118 40% 2 20.12.2026 -
Kenan Dervišagić Floriana Actif 104 / 100 40% 1 20.12.2026 -
Nathan Ordaz Metalist Actif 102 / 99 40% 1 19.12.2026 -
Martin Sekulić Ural Actif 110 / 108 40% 3 16.12.2026 -
Taofeek Ismaheel Qarabag Actif 120 / 102 40% 1 16.12.2026 -
Alexandr Yushin Torpedo Moscow Actif 90 / 95 40% 3 15.12.2026 -
Mikhail Ignatov Sochi Actif 124 / 125 40% 1 14.12.2026 -
Dmitry Tsypchenko Torpedo Moscow Actif 90 / 121 40% 1 13.12.2026 -
Ruslan Ozobic Inter Actif 113 / 115 40% 1 05.12.2026 -
Jurica Poldrugač Rudes Actif 116 / 90 40% 1 05.12.2026 -
Daniil Frolkin Fakel Actif 120 / 122 40% 1 05.12.2026 -
Islam Imamov SKA Khabarovsk Actif 113 / 80 40% 1 02.12.2026 -
Kevin Méndez Dinamo Tbilisi Actif 119 / 117 40% 1 28.11.2026 -
Mésaque Djú Portimonense Actif 100 / 97 40% 1 27.11.2026 -
Marcelo Torres Gimnasia La Plata Actif 121 / 121 40% 1 23.11.2026 -
David Sangaré Ryazan Actif 87 / 74 40% 1 23.11.2026 -
Anton Andersson Falkenberg Actif 102 / 88 40% 1 23.11.2026 -
Luke McGee Tranmere Rovers Actif 97 / 97 40% 1 22.11.2026 -
Filip Marschall Stevenage Actif 111 / 120 40% 2 20.11.2026 -
Gentian Selmani Teuta Durrës Actif 118 / 113 40% 1 20.11.2026 -
Kamil Conteh Bristol Rovers Actif 109 / 100 40% 1 17.11.2026 -
Stefan Despotovski OFK Beograd Actif 83 / 116 40% 1 17.11.2026 -
Facundo Castro Defensor Sporting Actif 124 / 112 40% 1 02.08.2026 -